Weather Roundup
Issued by NWS

Home | Current Version | Previous Version | Text Only | Print | Product List | Glossary On
Versions: 1 2 3 4 5 6 7 8 9 10 11 12 13 14 15 16 17 18 19 20 21 22 23 24 25 26 27 28 29 30 31 32 33 34 35 36 37 38 39 40 41 42 43 44 45 46 47 48 49 50
000
NZUS93 KARX 151559
HRRWXR

CURRENT HOURLY OBSERVATIONS ACROSS
MUCH OF THE UPPER MISSISSIPPI VALLEY
NATIONAL WEATHER SERVICE LA CROSSE WI
1100 AM CDT MON SEP 15 2014


...SOUTHEAST MINNESOTA...


CITY           SKY/WX    TMP DP  RH WIND       PRES   REMARKS
ROCHESTER      CLOUDY    51  46  83 N9        30.21R
ROCHESTER/MAYO PTSUNNY   51  46  83 NE6       30.20S
WINONA         LGT RAIN  52  48  87 NW5       30.19F
AUSTIN         CLOUDY    52  46  82 N5        30.20R
ALBERT LEA     PTSUNNY   54  48  82 NE8       30.20F
DODGE CENTER   CLOUDY    52  46  82 N5        30.20R
PRESTON        CLOUDY    48  48 100 NE8       30.19S
OWATONNA       PTSUNNY   54  48  82 NW5       30.21S
FARIBAULT      MOSUNNY   55  50  82 W3        30.21S
$$

...ELSEWHERE IN MINNESOTA...


CITY           SKY/WX    TMP DP  RH WIND       PRES   REMARKS
MINNEAPOLIS    PTSUNNY   56  47  71 NW7       30.21S
INTNL FALLS    SUNNY     52  37  56 W12       30.17S
DULUTH         MOSUNNY   53  34  48 NW13      30.17S
RED WING       MOSUNNY   55  48  76 N6        30.19S
REDWOOD FALLS  MOSUNNY   57  45  64 NW7       30.24R
MANKATO        PTSUNNY   54  45  71 NW6       30.22S
WORTHINGTON    MOSUNNY   54  45  71 N12       30.25S
FAIRMONT       CLOUDY    55  45  67 N7        30.23R
$$

...SOUTHWEST WISCONSIN...


CITY           SKY/WX    TMP DP  RH WIND       PRES   REMARKS
LA CROSSE      RAIN      52  48  86 N6        30.19R FOG
PRAIRIE DU CHI RAIN      53  50  90 N6        30.16R
BOSCOBEL       LGT RAIN  53  50  89 CALM      30.17R FOG
LONE ROCK      NOT AVBL
PLATTEVILLE    CLOUDY    56  51  83 CALM      30.12S
FORT MC COY    LGT RAIN  51  49  94 W3        30.19R
VIROQUA        CLOUDY    50  50 100 N6        30.18R
WIS DELLS      CLOUDY    52  49  90 N5        30.14S
$$

...ELSEWHERE IN WISCONSIN...


CITY           SKY/WX    TMP DP  RH WIND       PRES   REMARKS
MILWAUKEE      CLOUDY    57  51  80 NE8       30.12F
MADISON        DRIZZLE   55  51  86 CALM      30.14R FOG
GREEN BAY      CLOUDY    55  50  83 W5        30.14S
EAU CLAIRE     NOT AVBL
BLACK RVR FLS  RAIN      51  51 100 CALM      30.17F
MEDFORD        PTSUNNY   51  45  79 NW5       30.15F
WAUSAU         PTSUNNY   55  43  63 NW7       30.13S
WIS RAPIDS     LGT RAIN  52  50  93 CALM      30.16S
MARSHFIELD     CLOUDY    54  46  74 NW7       30.14F
RICE LAKE      PTSUNNY   52  45  76 NW6       30.20S
$$

...NORTHEAST IOWA...


CITY           SKY/WX    TMP DP  RH WIND       PRES   REMARKS
WATERLOO       LGT RAIN  51  48  89 N16       30.16R FOG
DUBUQUE        CLOUDY    57  51  80 N7        30.11F
DECORAH        CLOUDY    50  48  93 N8G16     30.17S
MASON CITY     PTSUNNY   54  49  83 N13       30.20S
CHARLES CITY   HVY RAIN  50  50 100 N13       30.19S
OELWEIN        CLOUDY    52  50  93 N10G17    30.16R
$$

...ELSEWHERE IN IOWA...


CITY           SKY/WX    TMP DP  RH WIND       PRES   REMARKS
DES MOINES     CLOUDY    58  52  80 N17       30.12R
IOWA CITY      CLOUDY    61  57  87 S6        30.10R
FORT DODGE     PTSUNNY   54  48  82 N10       30.19S
MARSHALLTOWN   CLOUDY    55  49  80 N18G26    30.15R
CEDAR RAPIDS   PTSUNNY   63  56  78 NW6       30.09R
$$

...NORTHERN ILLINOIS...


CITY           SKY/WX    TMP DP  RH WIND       PRES   REMARKS
CHICAGO-OHARE  CLOUDY    59  48  67 SW5       30.12S
DUPAGE         CLOUDY    57  50  77 S3        30.12S
CHICAGO-MIDWAY CLOUDY    60  51  72 S7        30.13R
MOLINE         CLOUDY    57  53  86 SE5       30.09S
ROCKFORD       CLOUDY    59  50  72 CALM      30.13S
STERLING       CLOUDY    59  52  77 S6        30.10F
PEORIA         RAIN      57  54  89 CALM      30.10F FOG
$$

NOTE: "FAIR" INDICATES FEW OR NO CLOUDS BELOW 12,000 FEET WITH NO
SIGNIFICANT WEATHER AND/OR OBSTRUCTIONS TO VISIBILITY. WIND
SPEEDS ARE IN MILES-PER-HOUR.



USA.gov is the U.S. government's official web portal to all federal, state and local government web resources and services.